FW1696 Weather Reports


Display with metric or nautical units.
time (UTC)temp
F
wind
direction
speed
MPH
gust
MPH
rain 1hr
in
rain 24hr
in
rain mn
in
humidity
%
barometer
mb
20220525203823 81 359 1.0 3.0 0.00 0.00 0.00 24 1014.7
20220525203315 81 357 1.0 5.0 0.00 0.00 0.00 28 1014.7
20220525202825 81 259 1.0 5.0 0.00 0.00 0.00 28 1014.8
20220525202333 81 195 1.0 5.0 0.00 0.00 0.00 27 1014.9
20220525201822 80 216 0.0 5.0 0.00 0.00 0.00 32 1015.0
20220525201331 80 300 0.0 4.0 0.00 0.00 0.00 28 1015.1
20220525200820 80 152 0.0 8.0 0.00 0.00 0.00 28 1015.1
20220525200329 79 113 3.0 8.0 0.00 0.00 0.00 33 1015.1
20220525195817 79 165 0.0 5.0 0.00 0.00 0.00 29 1015.2
20220525195325 79 163 2.0 4.0 0.00 0.00 0.00 30 1015.3
20220525194817 79 167 1.0 5.0 0.00 0.00 0.00 29 1015.4
20220525194326 79 178 2.0 6.0 0.00 0.00 0.00 29 1015.5
20220525193835 79 240 1.0 6.0 0.00 0.00 0.00 28 1015.5
20220525193324 79 204 2.0 5.0 0.00 0.00 0.00 31 1015.6
20220525192833 78 139 0.0 4.0 0.00 0.00 0.00 30 1015.5
20220525192322 78 264 1.0 4.0 0.00 0.00 0.00 30 1015.6
20220525191831 78 141 1.0 5.0 0.00 0.00 0.00 35 1015.8
20220525191319 78 169 2.0 4.0 0.00 0.00 0.00 29 1015.7
20220525190828 77 201 1.0 4.0 0.00 0.00 0.00 33 1015.6
20220525190321 77 291 1.0 3.0 0.00 0.00 0.00 29 1015.6
20220525185831 77 222 2.0 5.0 0.00 0.00 0.00 29 1015.6
20220525185320 77 257 2.0 5.0 0.00 0.00 0.00 28 1015.7
20220525184829 77 243 1.0 3.0 0.00 0.00 0.00 28 1015.8
20220525184316 77 278 1.0 4.0 0.00 0.00 0.00 28 1015.8
20220525183825 78 242 2.0 4.0 0.00 0.00 0.00 29 1015.8
20220525183335 77 150 1.0 3.0 0.00 0.00 0.00 27 1015.8
20220525031820 64 50 0.0 3.0 0.00 0.00 0.00 32 1014.2
20220525031330 64 114 0.0 1.0 0.00 0.00 0.00 32 1014.2
20220525030820 64 61 0.0 1.0 0.00 0.00 0.00 32 1014.2
20220525030330 64 70 0.0 3.0 0.00 0.00 0.00 32 1014.2
20220525000834 71 328 2.0 4.0 0.00 0.00 0.00 29 1015.4
20220524215334 70 1 1.0 7.0 0.00 0.00 0.00 33 1016.0
20220524214829 71 158 3.0 7.0 0.00 0.00 0.00 36 1016.1
20220524214320 71 30 2.0 5.0 0.00 0.00 0.00 32 1015.9
20220524213831 70 266 1.0 5.0 0.00 0.00 0.00 35 1015.9
20220524213323 70 77 2.0 8.0 0.00 0.00 0.00 30 1015.8
20220524212833 71 11 3.0 14.0 0.00 0.00 0.00 32 1015.8
20220524212323 71 59 3.0 14.0 0.00 0.00 0.00 34 1015.6
20220524211834 71 235 2.0 8.0 0.00 0.00 0.00 35 1015.8
20220524211327 70 51 1.0 9.0 0.00 0.00 0.00 36 1015.9
20220524210821 70 79 2.0 5.0 0.00 0.00 0.00 37 1016.0
20220524210332 69 136 2.0 6.0 0.00 0.00 0.00 34 1016.1
20220524205823 70 328 3.0 7.0 0.00 0.00 0.00 32 1016.1
20220524205333 69 15 1.0 7.0 0.00 0.00 0.00 37 1016.3
20220524204823 69 4 2.0 8.0 0.00 0.00 0.00 36 1016.2
20220524204333 69 262 1.0 10.0 0.00 0.00 0.00 38 1016.3